Time,Snow Cover Fraction,Confidence
2024-04-30T05:33:05,50,97.48
2024-04-30T06:03:06,50,61.74
2024-04-30T06:33:06,0,77.2
2024-04-30T07:03:06,0,82.01
2024-04-30T07:33:06,0,91.52
2024-04-30T08:33:05,0,92.44
2024-04-30T09:03:05,0,92.71
2024-04-30T09:33:05,0,84.27
2024-04-30T10:03:06,0,84.17
2024-04-30T10:33:06,0,74.92
2024-04-30T11:03:06,0,93.53
2024-04-30T11:33:06,50,58.52
2024-04-30T12:03:07,0,51.67
2024-04-30T12:33:06,50,61.52
2024-04-30T13:03:07,0,66.97
2024-04-30T13:33:05,0,70.37
2024-04-30T14:03:07,0,63.33
2024-04-30T14:33:07,0,91.92
2024-04-30T15:03:05,0,96.07
2024-04-30T15:33:06,0,99.22
2024-04-30T16:03:07,0,99.75
2024-04-30T16:33:05,0,99.72
2024-04-30T17:03:06,0,99.99
2024-04-30T17:33:06,50,96.09
2024-04-30T18:03:05,0,100.0
2024-04-30T18:33:05,50,94.48
2024-05-01T05:33:06,0,98.58
2024-05-01T06:03:06,0,99.63
2024-05-01T06:33:06,0,99.46
2024-05-01T07:03:06,0,99.3
2024-05-01T08:03:06,0,97.64
2024-05-01T08:33:05,0,94.28
2024-05-01T09:33:05,50,78.88
2024-05-01T10:03:06,50,79.22
2024-05-01T10:33:05,50,73.5
2024-05-01T11:03:05,50,58.42
2024-05-01T11:33:06,50,69.12
2024-05-01T12:03:06,50,65.54
2024-05-01T12:33:07,50,51.18
2024-05-01T13:03:06,0,74.07
2024-05-01T13:33:07,50,78.16
2024-05-01T14:03:07,0,74.55
2024-05-01T14:33:07,0,79.77
2024-05-01T15:03:06,0,80.6
2024-05-01T15:33:06,0,73.99
2024-05-01T16:03:07,0,88.48
2024-05-01T16:33:07,0,98.68
2024-05-01T17:03:06,0,99.64
2024-05-01T17:33:05,0,99.99
2024-05-01T18:03:06,0,99.99
2024-05-01T18:33:05,50,94.76
2024-05-02T05:33:06,0,96.28
2024-05-02T06:03:06,0,97.78
2024-05-02T06:33:06,0,99.61
2024-05-02T07:03:06,0,99.88
2024-05-02T07:33:06,0,99.46
2024-05-02T08:03:06,0,99.01
2024-05-02T08:33:05,0,99.86
2024-05-02T09:03:05,0,98.98
2024-05-02T09:33:06,0,99.74
2024-05-02T10:03:06,0,98.13
2024-05-02T10:33:06,0,99.96
2024-05-02T11:03:06,0,99.91
2024-05-02T11:33:05,0,99.64
2024-05-02T12:03:07,0,99.98
2024-05-02T12:33:07,0,99.98
2024-05-02T13:03:07,0,99.99
2024-05-02T13:33:07,0,99.97
2024-05-02T14:03:06,0,99.98
2024-05-02T14:33:05,0,99.89
2024-05-02T15:03:07,0,99.93
2024-05-02T15:33:06,0,99.97
2024-05-02T16:03:07,0,99.98
2024-05-02T16:33:06,0,99.97
2024-05-02T17:03:06,0,99.77
2024-05-02T17:33:06,0,99.16
2024-05-02T18:03:05,0,90.4
2024-05-02T18:33:06,50,99.62
2024-05-03T05:33:05,0,98.59
2024-05-03T06:03:06,0,99.62
2024-05-03T06:33:06,0,99.98
2024-05-03T07:03:05,0,99.96
2024-05-03T07:33:05,0,99.94
2024-05-03T08:03:06,0,99.98
2024-05-03T08:33:06,0,99.59
2024-05-03T09:03:06,0,94.86
2024-05-03T09:33:06,0,93.98
2024-05-03T10:03:06,0,89.82
2024-05-03T10:33:05,0,84.88
2024-05-03T11:03:05,0,86.36
2024-05-03T11:33:06,0,94.38
2024-05-03T12:03:07,0,95.17
2024-05-03T12:33:06,0,97.03
2024-05-03T13:03:06,0,98.36
2024-05-03T13:33:07,0,98.45
2024-05-03T14:03:07,0,98.69
2024-05-03T14:33:07,0,99.58
2024-05-03T15:03:06,0,99.75
2024-05-03T15:33:07,0,99.84
2024-05-03T16:03:07,0,99.92
2024-05-03T16:33:06,0,99.97
2024-05-03T17:03:06,0,99.99
2024-05-03T17:33:05,0,100.0
2024-05-03T18:03:05,0,100.0
2024-05-03T18:33:05,0,100.0
2024-05-04T06:03:05,0,100.0
2024-05-04T06:33:06,0,99.98
2024-05-04T07:03:06,0,99.98
2024-05-04T07:33:05,0,99.98
2024-05-04T08:03:05,0,99.99
2024-05-04T08:33:06,0,99.94
2024-05-04T09:03:06,0,99.98
2024-05-04T09:33:05,0,99.9
2024-05-04T10:03:06,0,99.61
2024-05-04T10:33:06,0,99.77
2024-05-04T11:03:06,0,99.77
2024-05-04T11:33:05,0,99.44
2024-05-04T12:33:06,0,99.9
2024-05-04T13:03:05,0,99.75
2024-05-04T13:33:07,0,99.97
2024-05-04T14:03:06,0,99.88
2024-05-04T14:33:06,0,99.73
2024-05-04T15:03:06,0,99.96
2024-05-04T15:33:07,0,99.97
2024-05-04T16:03:07,0,99.59
2024-05-04T16:33:05,0,100.0
2024-05-04T17:03:05,0,100.0
2024-05-04T17:33:06,0,100.0
2024-05-04T18:03:06,0,99.98
2024-05-04T18:33:06,0,88.79
2024-05-05T05:33:06,0,99.99
2024-05-05T06:03:05,0,99.97
2024-05-05T06:33:05,0,99.94
2024-05-05T07:03:05,0,99.89
2024-05-05T07:33:06,0,99.99
2024-05-05T08:03:05,0,99.99
2024-05-05T09:03:06,0,99.38
2024-05-05T09:33:06,0,99.14
2024-05-05T10:03:06,0,98.81
2024-05-05T10:33:05,0,98.78
2024-05-05T11:03:05,0,99.36
2024-05-05T11:33:05,0,99.41
2024-05-05T12:03:07,0,99.48
2024-05-05T12:33:06,0,99.48
2024-05-05T13:03:07,0,99.48
2024-05-05T13:33:07,0,99.88
2024-05-05T14:03:06,0,99.89
2024-05-05T14:33:06,0,99.97
2024-05-05T15:03:07,0,99.99
2024-05-05T15:33:06,0,99.97
2024-05-05T16:33:07,0,99.96
2024-05-05T17:03:06,0,99.99
2024-05-05T17:33:05,0,100.0
2024-05-05T18:03:05,0,100.0
2024-05-05T18:33:06,0,75.21
2024-05-06T05:33:06,0,100.0
2024-05-06T06:03:06,0,99.99
2024-05-06T06:33:06,0,99.98
2024-05-06T07:03:06,0,99.99
2024-05-06T07:33:05,0,99.99
2024-05-06T08:03:05,0,99.99
2024-05-06T08:33:06,0,99.91
2024-05-06T09:03:06,0,99.78
2024-05-06T10:03:06,0,99.2
2024-05-06T10:33:06,0,99.4
2024-05-06T11:03:06,0,99.17
2024-05-06T11:33:06,0,98.87
2024-05-06T12:03:07,0,99.1
2024-05-06T12:33:07,0,99.47
2024-05-06T13:03:07,0,99.84
2024-05-06T13:33:06,0,99.89
2024-05-06T14:03:06,0,99.96
2024-05-06T14:33:07,0,99.96
2024-05-06T15:03:06,0,99.98
2024-05-06T15:33:06,0,99.94
2024-05-06T16:03:07,0,99.99
2024-05-06T16:33:06,0,100.0
2024-05-06T17:03:06,0,100.0
2024-05-06T17:33:05,0,100.0
2024-05-06T18:03:05,0,100.0
2024-05-06T18:33:05,0,99.99
2024-05-07T05:33:06,0,99.99
2024-05-07T06:03:05,0,99.98
2024-05-07T06:33:06,0,99.99
2024-05-07T07:03:06,0,99.99
2024-05-07T07:33:05,0,99.99
2024-05-07T08:03:06,0,100.0
2024-05-07T08:33:06,0,99.82
2024-05-07T09:03:05,0,99.97
2024-05-07T09:33:05,0,100.0
2024-05-07T10:03:05,0,100.0
2024-05-07T10:33:07,0,100.0
2024-05-07T11:03:07,0,99.99
2024-05-07T11:33:06,0,99.99
2024-05-07T12:03:07,0,100.0
2024-05-07T13:03:05,0,100.0
2024-05-07T13:33:06,0,99.49
2024-05-07T14:03:06,0,99.93
2024-05-07T14:33:06,0,99.85
2024-05-07T15:33:06,0,100.0
2024-05-07T16:03:05,0,100.0
2024-05-07T16:33:06,0,100.0
2024-05-07T17:03:06,0,99.79
2024-05-07T17:33:05,0,100.0
2024-05-07T18:03:06,0,99.98
2024-05-07T18:33:06,50,88.86
2024-05-08T05:33:05,0,100.0
2024-05-08T06:03:05,0,100.0
2024-05-08T06:33:05,0,100.0
2024-05-08T07:03:05,0,100.0
2024-05-08T07:33:05,0,100.0
2024-05-08T08:03:05,0,100.0
2024-05-08T08:33:06,0,99.98
2024-05-08T09:03:06,0,99.62
2024-05-08T09:33:05,0,99.4
2024-05-08T10:03:06,0,99.51
2024-05-08T10:33:05,0,99.58
2024-05-08T11:03:05,0,99.61
2024-05-08T11:33:05,0,99.7
2024-05-08T12:03:07,0,99.84
2024-05-08T12:33:06,0,99.96
2024-05-08T13:33:05,0,99.93
2024-05-08T14:03:06,0,99.95
2024-05-08T14:33:06,0,100.0
2024-05-08T15:03:07,0,100.0
2024-05-08T15:33:07,0,100.0
2024-05-08T16:03:07,0,99.99
2024-05-08T16:33:05,0,100.0
2024-05-08T17:03:06,0,100.0
2024-05-08T18:03:06,0,100.0
2024-05-08T18:33:06,0,100.0
2024-05-09T05:33:06,0,99.99
2024-05-09T06:03:05,0,100.0
2024-05-09T06:33:06,0,100.0
2024-05-09T07:03:05,0,100.0
2024-05-09T07:33:06,0,100.0
2024-05-09T08:03:06,0,100.0
2024-05-09T08:33:05,0,100.0
2024-05-09T09:03:06,0,100.0
2024-05-09T09:33:06,0,100.0
2024-05-09T10:03:05,0,100.0
2024-05-09T10:33:06,0,100.0
2024-05-09T11:03:06,0,100.0
2024-05-09T11:33:05,0,100.0
2024-05-09T12:03:06,0,100.0
2024-05-09T12:33:06,0,99.99
2024-05-09T13:03:07,0,99.94
2024-05-09T13:33:06,0,100.0
2024-05-09T14:03:06,0,99.96
2024-05-09T14:33:07,0,100.0
2024-05-09T15:03:07,0,100.0
2024-05-09T15:33:06,0,100.0
2024-05-09T16:03:07,0,100.0
2024-05-09T16:33:05,0,100.0
2024-05-09T17:03:06,0,99.98
2024-05-09T17:33:06,0,99.82
2024-05-09T18:03:06,0,99.98
2024-05-09T18:33:05,50,67.74
2024-05-10T05:33:05,0,100.0
2024-05-10T06:03:05,0,100.0
2024-05-10T06:33:06,0,100.0
2024-05-10T07:03:06,0,99.99
2024-05-10T07:33:06,0,99.99
2024-05-10T08:03:05,0,99.86
2024-05-10T08:33:06,0,99.87
2024-05-10T09:03:05,0,99.29
2024-05-10T09:33:06,0,98.36
2024-05-10T10:03:06,0,98.58
2024-05-10T10:33:06,0,99.98
2024-05-10T11:03:05,0,99.97
2024-05-10T11:33:06,0,70.25
2024-05-10T12:03:07,0,97.04
2024-05-10T12:33:06,0,99.39
2024-05-10T13:03:07,0,98.74
2024-05-10T13:33:06,0,99.92
2024-05-10T14:03:06,0,99.15
2024-05-10T14:33:06,0,92.98
2024-05-10T15:03:06,0,99.96
2024-05-10T15:33:07,0,99.9
2024-05-10T16:03:07,0,99.92
2024-05-10T16:33:05,0,99.95
2024-05-10T17:03:06,0,100.0
2024-05-10T17:33:06,0,100.0
2024-05-10T18:03:06,0,100.0
2024-05-10T18:33:06,0,92.5
2024-05-11T05:33:05,0,99.98
2024-05-11T06:03:06,0,99.99
2024-05-11T06:33:06,0,100.0
2024-05-11T07:03:06,0,99.99
2024-05-11T07:33:06,0,100.0
2024-05-11T08:03:05,0,99.98
2024-05-11T08:33:06,0,99.85
2024-05-11T09:03:05,0,97.34
2024-05-11T09:33:06,0,99.82
2024-05-11T10:03:06,0,99.55
2024-05-11T10:33:06,0,97.47
2024-05-11T11:03:06,0,99.07
2024-05-11T11:33:05,0,99.99
2024-05-11T12:03:06,0,99.99
2024-05-11T12:33:06,0,100.0
2024-05-11T13:03:06,0,99.88
2024-05-11T13:33:05,0,99.9
2024-05-11T14:03:07,0,99.78
2024-05-11T14:33:07,0,99.82
2024-05-11T15:03:06,0,99.99
2024-05-11T15:33:06,0,99.99
2024-05-11T16:03:06,0,99.98
2024-05-11T17:03:05,0,99.94
2024-05-11T17:33:06,0,91.89
2024-05-11T18:03:06,0,99.93
2024-05-11T18:33:05,0,100.0
2024-05-12T05:33:05,0,99.99
2024-05-12T06:03:06,0,99.99
2024-05-12T06:33:06,0,99.99
2024-05-12T07:03:05,0,99.98
2024-05-12T08:03:06,0,99.87
2024-05-12T08:33:06,0,99.9
2024-05-12T09:03:06,0,99.99
2024-05-12T09:33:05,0,99.49
2024-05-12T10:03:05,0,99.26
2024-05-12T10:33:06,0,99.15
2024-05-12T11:03:06,0,99.88
2024-05-12T11:33:06,0,99.27
2024-05-12T12:03:07,0,98.13
2024-05-12T12:33:07,0,99.41
2024-05-12T13:03:06,0,99.96
2024-05-12T13:33:06,0,99.99
2024-05-12T14:03:07,0,99.99
2024-05-12T14:33:06,0,99.97
2024-05-12T15:03:06,0,99.99
2024-05-12T16:03:06,0,99.99
2024-05-12T16:33:05,0,99.93
2024-05-12T17:03:06,0,98.91
2024-05-12T17:33:06,0,99.99
2024-05-12T18:03:06,0,91.73
2024-05-12T18:33:05,0,99.38
2024-05-13T05:33:06,0,99.96
2024-05-13T06:03:05,0,99.84
2024-05-13T06:33:05,0,99.98
2024-05-13T07:03:06,0,99.96
2024-05-13T07:33:05,0,99.99
2024-05-13T08:03:06,0,99.99
2024-05-13T08:33:06,0,99.68
2024-05-13T09:03:06,0,99.96
2024-05-13T09:33:06,0,99.98
2024-05-13T10:03:06,0,99.98
2024-05-13T10:33:05,0,99.99
2024-05-13T11:03:06,0,99.99
2024-05-13T11:33:06,0,99.98
2024-05-13T12:03:07,0,100.0
2024-05-13T12:33:07,0,100.0
2024-05-13T13:03:07,0,99.98
2024-05-13T13:33:05,0,100.0
2024-05-13T14:03:07,0,100.0
2024-05-13T14:33:06,0,100.0
2024-05-13T15:03:06,0,99.99
2024-05-13T15:33:07,0,100.0
2024-05-13T16:03:06,0,99.99
2024-05-13T16:33:06,0,99.99
2024-05-13T17:03:06,0,99.99
2024-05-13T17:33:06,0,99.99
2024-05-13T18:33:06,0,99.99